Wind_Speed
2 2 3 3 3 3 3 3 3 3 2 1 1 2 2 2 2 2 2 1 2 2 2 3 2 3 3 3 2 3 3 3 3 3 2 2 2 2 2 2 2 3 3
3 3 4 4 4 3 3 3 3 3 3 2 3 3 3 3 3 2 2 2 2 3 3 3 3 4 4 4 3 4 4 3 4 4 3 3 3 3 3 3 2 3 3
3 4 4 4 4 4 4 4 4 4 4 3 3 4 4 4 4 3 3 3 3 3 3 3 4 4 5 4 4 4 4 4 4 4 4 4 4 4 3 3 4 4 4
5 5 5 5 5 5 4 4 4 4 4 4 4 4 4 4 4 4 4 3 3 3 3 4 4 5 5 5 5 5 5 5 5 5 5 5 5 5 5 4 4 4 5
6 6 6 5 5 5 5 5 5 5 5 5 5 5 5 5 5 5 5 4 4 4 4 5 5 6 6 6 6 6 7 6 6 6 6 6 6 6 6 5 5 5 5
8 8 7 7 6 6 6 6 6 6 6 6 6 6 6 6 6 6 5 5 5 5 5 6 6 6 6 6 7 7 7 7 7 7 7 7 7 7 6 6 6 6 6
9 9 9 8 8 8 8 8 7 7 7 7 7 7 6 6 6 6 6 6 6 6 6 6 6 7 7 7 7 7 7 7 7 7 7 7 8 8 8 8 8 7 8
9 9 9 9 9 10 10 9 9 9 8 8 7 7 7 7 7 7 6 6 7 7 7 7 7 7 7 7 8 8 8 8 8 8 8 8 8 9 9 9 9 9 9
9 9 9 10 10 10 10 10 10 9 9 8 8 8 9 9 8 8 8 8 8 8 8 9 8 8 8 8 9 9 8 8 8 8 9 9 9 10 10 9 9 10 10
10 10 11 10 10 10 10 10 10 10 10 9 9 9 9 9 10 9 9 8 9 9 9 9 9 9 10 10 10 10 9 9 9 9 10 10 10 10 10 10 10 10 10
10 10 10 10 10 10 10 10 10 11 10 9 9 9 9 9 9 10 10 10 10 10 10 10 10 11 11 10 10 10 10 10 10 10 10 10 10 10 10 10 10 11 12
11 11 10 10 10 10 10 10 10 10 11 10 10 9 10 10 10 10 10 11 11 11 11 11 11 12 11 11 11 11 11 11 11 11 10 11 11 11 12 12 13 13 13
11 11 10 10 10 10 11 12 12 11 11 11 11 11 11 11 11 10 10 11 11 11 12 12 12 12 11 11 12 12 12 12 12 13 13 13 12 12 13 13 14 14 15
13 12 11 11 11 11 12 12 12 11 10 11 11 12 11 11 11 11 11 11 12 12 12 13 13 13 13 13 13 13 13 13 14 14 14 14 14 15 15 15 15 15 15
13 13 13 12 12 13 13 13 12 11 11 11 11 11 11 12 13 13 13 13 13 14 14 14 14 14 15 14 14 14 15 15 15 15 15 15 16 16 16 16 16 16 16
14 14 13 13 13 14 14 13 12 12 12 12 12 12 12 13 13 14 14 15 15 15 15 16 16 16 16 16 16 16 16 17 17 17 17 17 17 18 18 18 18 18 18
14 13 13 14 13 13 13 12 12 13 13 13 13 13 13 14 14 14 15 15 16 16 17 17 18 18 18 18 18 18 18 18 18 18 18 19 20 20 20 20 19 20 20
14 14 13 14 13 13 13 13 14 13 14 14 14 14 14 14 15 16 16 17 17 18 18 19 19 19 19 19 20 20 20 20 20 20 20 21 22 21 21 20 21 21 21
14 14 14 14 14 13 13 14 14 14 15 14 15 15 16 16 16 17 17 18 19 19 19 19 19 20 20 20 21 21 21 21 22 22 22 23 23 23 22 23 23 23 23
14 15 15 15 14 14 15 15 16 16 16 17 17 17 17 17 18 18 18 19 20 20 20 20 20 21 21 21 22 22 23 24 24 24 24 25 25 25 25 25 25 26 26
16 16 16 16 16 16 16 17 17 17 17 17 18 19 19 19 19 19 20 21 21 21 21 22 22 22 23 23 23 24 25 25 26 26 27 27 27 27 27 27 28 29 29
16 16 16 16 16 16 17 17 18 18 19 19 19 19 20 20 21 21 22 22 22 22 23 23 23 24 25 24 25 25 26 27 27 28 28 29 29 29 29 30 30 31 32
16 16 16 16 15 16 17 19 20 20 20 20 20 20 21 21 22 23 23 23 24 24 25 25 25 26 26 26 27 28 28 28 28 29 30 30 31 30 31 32 33 34 34
17 17 17 16 16 17 18 19 21 21 21 21 22 22 22 23 23 23 24 25 25 25 26 27 27 28 28 29 29 30 30 31 31 31 32 33 34 34 35 36 36 37 37
17 17 16 17 17 18 19 20 21 21 21 22 23 23 24 25 25 26 26 27 27 27 28 29 29 30 30 31 31 31 32 32 33 34 35 35 36 37 37 38 39 40 41
18 17 17 17 18 19 19 20 20 21 22 22 23 24 25 27 28 28 28 29 29 29 30 31 31 31 32 32 33 33 34 34 34 35 36 37 37 37 38 39 40 41 42
Wind_Direction
262 279 289 292 286 287 285 291 282 292 297 293 292 302 304 321 327 326 331 321 322 334 334 333 340 344 336 328 337 333 332 341 337 323 320 319 320 315 323 290 264 251 243
273 279 280 285 276 272 278 286 280 276 283 284 281 280 282 293 297 307 308 306 296 303 314 316 320 324 324 325 323 329 331 329 325 316 312 301 293 296 308 314 282 263 248
276 283 283 279 271 265 265 274 276 277 280 286 285 282 287 288 287 292 295 297 287 285 292 306 311 315 316 317 323 322 324 324 318 307 304 301 297 289 292 291 288 277 262
273 280 279 278 268 260 265 274 275 277 276 279 283 288 288 287 287 294 292 290 284 283 288 298 302 305 303 299 303 308 311 315 313 304 294 294 296 291 288 290 285 281 273
271 274 278 275 269 265 268 274 274 276 275 277 277 279 281 286 288 293 293 289 281 279 284 293 298 302 298 296 298 297 300 307 307 299 293 292 293 289 285 285 286 284 282
273 272 274 274 268 260 262 269 270 274 278 283 280 275 277 281 289 293 291 290 286 284 288 292 294 301 305 305 305 302 299 300 302 298 292 291 293 291 284 281 284 284 281
273 271 273 272 265 257 259 264 269 274 277 278 278 275 275 282 287 291 290 291 286 285 291 292 291 295 301 303 305 306 301 298 300 296 291 289 291 291 289 284 282 282 279
272 271 271 273 269 263 261 262 264 268 271 271 274 276 271 272 278 285 292 294 290 287 291 293 291 293 294 297 298 303 300 296 295 293 290 287 287 289 289 288 284 285 281
265 271 275 276 274 268 264 264 265 267 270 272 273 273 272 271 274 279 290 291 291 289 291 293 290 292 292 291 294 298 297 294 293 292 290 288 287 288 289 286 286 286 285
268 273 275 278 277 271 267 267 267 267 269 273 273 269 269 272 274 278 283 288 293 293 289 290 291 290 290 290 290 294 292 292 291 289 288 287 287 290 289 287 284 285 284
270 275 279 276 276 274 272 269 268 268 268 271 269 266 267 271 272 277 281 284 291 294 292 291 292 295 293 292 291 293 290 289 290 288 286 289 289 290 289 288 286 285 282
270 273 280 278 271 272 273 274 275 270 268 266 266 264 266 268 272 278 281 285 289 291 291 292 294 294 294 291 290 290 289 288 289 287 283 286 288 289 289 287 287 285 280
273 274 281 278 271 270 274 275 273 271 268 266 268 267 270 271 274 279 281 284 286 289 290 292 293 294 292 290 290 287 287 288 289 287 283 283 284 286 289 290 289 285 283
275 276 278 277 273 273 274 276 276 267 266 269 271 272 272 272 274 277 282 283 284 287 289 289 289 291 291 289 288 287 284 285 287 288 285 283 282 285 288 289 288 285 285
274 275 275 274 271 270 273 275 276 268 267 270 273 274 274 273 273 276 280 282 284 285 286 289 288 289 290 289 287 289 286 285 285 285 284 282 282 283 286 288 287 284 285
273 273 271 271 272 269 271 273 271 266 268 271 271 275 277 276 273 275 279 282 283 285 286 287 286 288 288 289 287 287 287 285 286 285 284 284 283 284 285 287 287 284 284
272 273 273 272 273 270 270 271 272 269 268 273 273 276 278 277 274 275 279 282 283 284 286 285 284 286 287 288 289 287 287 286 284 283 283 284 283 283 283 284 283 283 282
272 272 273 274 273 269 269 271 272 270 270 272 273 275 277 278 277 278 280 282 284 284 284 284 284 285 285 286 288 287 286 286 285 283 282 284 284 284 283 283 281 281 281
271 270 271 274 272 269 268 270 270 272 270 270 273 275 277 277 279 280 281 282 284 283 284 283 284 284 283 285 288 287 285 285 285 284 285 284 284 283 282 281 281 281 280
271 270 272 272 271 268 266 267 268 273 271 271 274 275 277 276 277 279 280 282 283 283 284 284 284 284 284 285 286 286 285 285 284 283 285 284 283 281 281 281 280 280 280
272 272 272 269 267 267 268 268 269 271 272 273 275 275 277 278 278 278 281 283 283 281 282 283 283 283 285 285 285 285 284 285 284 282 284 284 283 281 281 280 280 279 279
271 270 270 269 267 267 269 270 271 271 272 274 275 275 278 280 279 281 281 281 282 282 281 282 282 283 285 284 284 285 285 285 284 283 283 284 285 283 281 281 281 280 281
269 270 270 268 268 271 273 274 273 272 275 275 274 276 279 281 282 283 282 281 282 281 280 280 282 284 284 282 283 284 284 284 284 284 283 284 284 284 283 283 283 283 283
272 274 271 268 270 272 275 278 277 275 274 274 275 278 281 282 282 282 282 282 283 282 280 280 281 282 282 282 283 284 285 285 284 283 282 282 283 283 283 283 283 284 283
275 275 272 270 271 272 275 281 281 277 275 274 275 278 279 280 282 283 282 282 283 282 282 282 282 283 285 285 285 284 285 285 286 284 283 284 283 283 283 283 283 283 283
274 274 273 271 271 274 277 281 283 280 277 277 278 279 280 280 280 281 281 282 283 282 282 283 284 285 285 286 285 284 284 285 286 286 285 284 284 284 284 284 284 284 285
Height
5909 5909 5908 5908 5908 5907 5907 5907 5906 5906 5906 5906 5905 5905 5905 5905 5905 5904 5904 5904 5903 5903 5903 5902 5902 5902 5901 5901 5901 5900 5900 5899 5899 5898 5898 5898 5897 5897 5897 5897 5896 5896 5896
5908 5908 5908 5907 5907 5907 5906 5906 5906 5905 5905 5905 5905 5905 5905 5905 5904 5904 5904 5903 5903 5902 5902 5902 5902 5901 5901 5900 5900 5900 5899 5899 5898 5898 5897 5897 5897 5897 5896 5896 5896 5896 5895
5908 5907 5907 5906 5906 5906 5905 5905 5905 5905 5905 5904 5905 5904 5904 5904 5903 5903 5903 5902 5902 5902 5901 5901 5901 5901 5900 5900 5899 5899 5898 5898 5898 5897 5897 5897 5896 5896 5896 5895 5895 5895 5895
5907 5906 5906 5905 5904 5905 5905 5905 5904 5904 5904 5904 5904 5904 5903 5903 5903 5902 5902 5902 5901 5901 5901 5901 5900 5900 5900 5899 5899 5898 5898 5897 5897 5896 5896 5896 5895 5895 5895 5895 5894 5894 5894
5906 5905 5905 5904 5904 5904 5904 5904 5904 5903 5903 5903 5903 5902 5902 5902 5902 5901 5901 5901 5900 5900 5900 5900 5899 5899 5899 5898 5898 5897 5896 5896 5896 5895 5895 5894 5894 5894 5894 5893 5893 5893 5893
5904 5904 5903 5903 5903 5903 5903 5903 5903 5902 5902 5902 5901 5901 5901 5901 5901 5900 5900 5900 5899 5899 5899 5899 5898 5898 5897 5897 5896 5896 5895 5895 5894 5894 5894 5893 5893 5893 5892 5892 5892 5892 5891
5902 5902 5902 5901 5901 5902 5902 5901 5901 5901 5901 5900 5900 5900 5900 5900 5899 5899 5899 5899 5898 5898 5898 5897 5897 5896 5896 5895 5895 5894 5894 5893 5893 5892 5892 5892 5891 5891 5891 5890 5890 5890 5890
5900 5900 5900 5900 5900 5900 5900 5900 5899 5899 5899 5899 5899 5898 5898 5899 5898 5898 5898 5898 5897 5897 5896 5896 5895 5895 5894 5894 5893 5893 5892 5892 5891 5891 5890 5890 5890 5889 5889 5888 5888 5888 5888
5898 5898 5898 5898 5898 5898 5898 5898 5897 5897 5897 5897 5897 5897 5897 5897 5897 5897 5896 5896 5896 5895 5895 5894 5894 5893 5892 5892 5892 5891 5891 5890 5890 5889 5888 5888 5888 5887 5887 5886 5886 5886 5885
5896 5896 5896 5896 5895 5895 5895 5895 5895 5895 5895 5895 5895 5895 5895 5895 5895 5895 5895 5894 5894 5894 5893 5892 5892 5891 5890 5890 5890 5889 5889 5888 5887 5887 5886 5886 5885 5885 5884 5884 5883 5883 5883
5894 5894 5893 5893 5893 5893 5893 5893 5893 5893 5893 5893 5893 5893 5893 5893 5893 5893 5893 5893 5892 5892 5891 5890 5890 5889 5888 5888 5887 5887 5886 5886 5885 5884 5884 5883 5883 5882 5882 5881 5881 5880 5880
5892 5891 5891 5891 5891 5891 5891 5891 5891 5890 5890 5891 5891 5891 5891 5891 5891 5891 5891 5891 5890 5890 5889 5888 5888 5887 5886 5885 5885 5885 5884 5883 5883 5882 5881 5881 5880 5879 5879 5878 5877 5877 5876
5889 5889 5888 5888 5888 5888 5889 5889 5888 5888 5888 5888 5888 5888 5888 5888 5889 5889 5889 5888 5888 5888 5887 5886 5885 5884 5883 5883 5882 5882 5881 5881 5880 5879 5879 5878 5877 5876 5875 5874 5874 5873 5873
5887 5886 5886 5886 5886 5886 5886 5886 5885 5885 5885 5885 5885 5885 5885 5886 5886 5886 5886 5886 5885 5885 5884 5883 5882 5882 5881 5880 5879 5879 5878 5877 5877 5876 5875 5874 5874 5873 5872 5871 5870 5869 5868
5884 5884 5884 5883 5883 5883 5883 5883 5882 5882 5882 5883 5883 5883 5883 5883 5883 5883 5883 5883 5883 5882 5881 5880 5880 5879 5878 5877 5876 5875 5875 5874 5873 5872 5871 5870 5870 5869 5868 5867 5866 5865 5864
5881 5880 5880 5880 5880 5880 5880 5880 5879 5880 5880 5880 5880 5880 5880 5879 5879 5880 5880 5879 5879 5878 5878 5877 5876 5875 5874 5873 5872 5872 5871 5870 5869 5868 5867 5866 5865 5864 5863 5862 5861 5860 5860
5878 5877 5877 5876 5876 5876 5876 5876 5876 5876 5877 5877 5877 5877 5877 5876 5876 5876 5876 5876 5875 5874 5874 5873 5872 5871 5870 5870 5868 5867 5866 5865 5864 5863 5862 5862 5860 5859 5858 5857 5856 5855 5855
5874 5874 5873 5873 5873 5873 5873 5873 5873 5873 5873 5873 5873 5873 5873 5873 5873 5872 5872 5872 5871 5870 5869 5868 5867 5867 5866 5865 5864 5863 5861 5860 5859 5858 5857 5856 5855 5854 5853 5852 5851 5850 5849
5871 5871 5870 5869 5869 5869 5870 5870 5870 5870 5870 5870 5870 5870 5869 5869 5868 5868 5867 5867 5866 5865 5864 5863 5862 5861 5861 5859 5859 5857 5856 5855 5854 5853 5852 5850 5849 5848 5847 5846 5845 5844 5843
5867 5867 5867 5866 5866 5866 5866 5866 5866 5866 5866 5866 5866 5865 5865 5864 5864 5863 5862 5862 5861 5860 5859 5858 5857 5856 5855 5854 5853 5852 5850 5849 5848 5846 5845 5844 5843 5841 5840 5839 5838 5837 5836
5864 5863 5863 5862 5862 5862 5862 5862 5862 5862 5862 5861 5861 5861 5860 5860 5859 5858 5857 5857 5855 5854 5853 5852 5851 5850 5849 5848 5847 5845 5844 5843 5841 5840 5838 5837 5836 5834 5833 5831 5830 5829 5828
5860 5859 5859 5858 5858 5858 5858 5858 5858 5857 5857 5856 5856 5855 5855 5854 5854 5853 5852 5851 5850 5848 5847 5846 5845 5844 5842 5841 5840 5838 5837 5836 5834 5833 5831 5829 5828 5826 5824 5823 5822 5820 5819
5855 5855 5855 5854 5854 5854 5853 5853 5853 5852 5851 5851 5850 5850 5849 5848 5848 5847 5846 5844 5843 5842 5841 5840 5839 5837 5836 5834 5833 5831 5829 5827 5826 5824 5823 5821 5819 5817 5815 5813 5812 5811 5809
5851 5851 5850 5850 5850 5850 5849 5848 5847 5846 5845 5845 5844 5844 5843 5842 5841 5840 5839 5838 5837 5835 5834 5833 5831 5830 5828 5827 5825 5823 5821 5820 5818 5816 5814 5813 5810 5808 5806 5804 5802 5800 5798
5847 5847 5846 5845 5845 5845 5844 5844 5842 5841 5840 5839 5838 5837 5837 5836 5835 5833 5832 5831 5830 5828 5826 5825 5823 5821 5820 5818 5816 5814 5812 5811 5809 5807 5805 5803 5800 5798 5796 5793 5791 5789 5786
5843 5842 5842 5841 5841 5840 5839 5839 5837 5836 5835 5834 5832 5831 5830 5829 5828 5826 5825 5823 5822 5820 5819 5817 5815 5813 5811 5809 5807 5805 5803 5801 5799 5797 5794 5792 5789 5787 5785 5782 5779 5776 5774